Weather History for Malaga, Spain

Change the Weather History Date:

Tuesday, September 3, 2013

  Actual Average Record
Temperature  
Mean Temperature 78 °F -  
Max Temperature 84 °F 78 °F 101 °F (2014)
Min Temperature 71 °F 62 °F 60 °F (2003)
Cooling Degree Days 12    
Growing Degree Days 28 (Base 50)    
Moisture  
Dew Point 65 °F    
Average Humidity 70    
Maximum Humidity 83    
Minimum Humidity 48    
Precipitation  
Precipitation 0.00 in 0.02 in - ()
Sea Level Pressure  
Sea Level Pressure 30.15 in    
Wind  
Wind Speed 4 mph ()    
Max Wind Speed 10 mph    
Max Gust Speed -    
Visibility 6.8 miles    
Events      
Averages and records for this station are not official NWS values.
T = Trace of Precipitation, MM = Missing Value Source: Averaged Metar Reports

Daily Weather History Graph

Daily Weather History Graph

Search for Another Location

Airport:

Trip Planner

Search our weather history database for the weather conditions in past years. The results will help you decide how hot, cold, wet, or windy it might be!

Date:

Astronomy

Sep. 03, 2013 Rise Set
Actual Time 7:50 AM CEST 8:43 PM CEST
Civil Twilight 7:24 AM CEST 9:09 PM CEST
Nautical Twilight 6:53 AM CEST 9:40 PM CEST
Astronomical Twilight 6:20 AM CEST 10:12 PM CEST
Moon 5:52 AM CEST (9/3) 7:21 PM CEST (9/3)
Length of Visible Light 13h 45m
Length of Day
12h 52m
Waning Crescent, 4% of the Moon is Illuminated
Sep 3
Waning Crescent
Sep 5
New
Sep 12
First Quarter
Sep 19
Full
Sep 27
Last Quarter

Hourly Weather History & Observations

Time (CEST) Temp. Heat Index Dew Point Humidity Pressure Visibility Wind Dir Wind Speed Gust Speed Precip Events Conditions
12:00 AM 73.4 °F - 64.4 °F 73% 30.18 in - Calm Calm - N/A   Clear
12:30 AM 73.4 °F - 64.4 °F 73% 30.18 in - Calm Calm - N/A   Clear
1:00 AM 73.4 °F - 66.2 °F 78% 30.18 in 6.2 mi ESE 3.5 mph - N/A   Partly Cloudy
1:30 AM 75.2 °F - 68.0 °F 78% 30.18 in 6.2 mi ESE 4.6 mph - N/A   Scattered Clouds
2:00 AM 76 °F - 68 °F 70% 30.19 in 12 mi SE 4.6 mph - -   Partly Cloudy
2:00 AM 75.2 °F - 68.0 °F 78% 30.18 in 6.2 mi SE 4.6 mph - N/A   Scattered Clouds
2:30 AM 75.2 °F - 68.0 °F 78% 30.18 in 6.2 mi Variable 2.3 mph - N/A   Mostly Cloudy
3:00 AM 75.2 °F - 68.0 °F 78% 30.18 in 6.2 mi SSE 3.5 mph - N/A   Mostly Cloudy
3:30 AM 73.4 °F - 68.0 °F 83% 30.15 in 6.2 mi Variable 1.2 mph - N/A   Mostly Cloudy
4:00 AM 73.4 °F - 68.0 °F 83% 30.15 in 6.2 mi Variable 1.2 mph - N/A   Mostly Cloudy
4:30 AM 73.4 °F - 68.0 °F 83% 30.15 in 6.2 mi Variable 1.2 mph - N/A   Mostly Cloudy
5:00 AM 71.6 °F - 62.6 °F 73% 30.15 in 6.2 mi WNW 1.2 mph - N/A   Mostly Cloudy
5:30 AM 71.6 °F - 60.8 °F 69% 30.15 in 6.2 mi Variable 2.3 mph - N/A   Mostly Cloudy
6:00 AM 71.6 °F - 60.8 °F 69% 30.15 in 6.2 mi WNW 2.3 mph - N/A   Mostly Cloudy
6:30 AM 69.8 °F - 60.8 °F 73% 30.15 in 6.2 mi WNW 1.2 mph - N/A   Mostly Cloudy
7:00 AM 69.8 °F - 62.6 °F 78% 30.15 in 6.2 mi WNW 2.3 mph - N/A   Mostly Cloudy
7:30 AM 71.6 °F - 62.6 °F 73% 30.15 in 6.2 mi Calm Calm - N/A   Mostly Cloudy
8:00 AM 73 °F - 62 °F 60% 30.17 in 16 mi WNW 2.3 mph - -   Mostly Cloudy
8:00 AM 71.6 °F - 62.6 °F 73% 30.15 in 6.2 mi WNW 2.3 mph - N/A   Mostly Cloudy
8:30 AM 71.6 °F - 62.6 °F 73% 30.15 in 6.2 mi Variable 2.3 mph - N/A   Mostly Cloudy
9:00 AM 71.6 °F - 62.6 °F 73% 30.15 in 6.2 mi WNW 3.5 mph - N/A   Mostly Cloudy
9:30 AM 73.4 °F - 64.4 °F 73% 30.15 in 6.2 mi WNW 1.2 mph - N/A   Mostly Cloudy
10:00 AM 77.0 °F - 66.2 °F 69% 30.18 in 6.2 mi ENE 1.2 mph - N/A   Mostly Cloudy
10:30 AM 77.0 °F - 66.2 °F 69% 30.18 in 6.2 mi East 6.9 mph - N/A   Mostly Cloudy
11:00 AM 78.8 °F - 66.2 °F 65% 30.18 in 6.2 mi East 8.1 mph - N/A   Mostly Cloudy
11:30 AM 78.8 °F - 64.4 °F 61% 30.18 in 6.2 mi East 6.9 mph - N/A   Mostly Cloudy
12:00 PM 78.8 °F - 64.4 °F 61% 30.18 in 6.2 mi ESE 8.1 mph - N/A   Scattered Clouds
12:30 PM 78.8 °F - 64.4 °F 61% 30.18 in 6.2 mi East 8.1 mph - N/A   Partly Cloudy
1:00 PM 78.8 °F - 64.4 °F 61% 30.18 in 6.2 mi ESE 8.1 mph - N/A   Partly Cloudy
1:30 PM 78.8 °F - 64.4 °F 61% 30.18 in 6.2 mi ESE 8.1 mph - N/A   Partly Cloudy
2:00 PM 83 °F - 67 °F 48% 30.18 in 19 mi SE 9.2 mph - -   Scattered Clouds
2:00 PM 80.6 °F 82.7 °F 66.2 °F 61% 30.18 in 6.2 mi SE 9.2 mph - N/A   Partly Cloudy
2:30 PM 78.8 °F - 64.4 °F 61% 30.15 in 6.2 mi SE 8.1 mph - N/A   Partly Cloudy
3:00 PM 78.8 °F - 64.4 °F 61% 30.15 in 6.2 mi SE 10.4 mph - N/A   Partly Cloudy
3:30 PM 80.6 °F 82.3 °F 64.4 °F 58% 30.15 in 6.2 mi SE 9.2 mph - N/A   Partly Cloudy
4:00 PM 80.6 °F 82.3 °F 64.4 °F 58% 30.15 in - SE 8.1 mph - N/A   Clear
4:30 PM 78.8 °F - 64.4 °F 61% 30.15 in 6.2 mi SE 9.2 mph - N/A   Partly Cloudy
5:00 PM 78.8 °F - 66.2 °F 65% 30.12 in 6.2 mi SE 9.2 mph - N/A   Partly Cloudy
5:30 PM 78.8 °F - 66.2 °F 65% 30.12 in 6.2 mi SE 9.2 mph - N/A   Partly Cloudy
6:00 PM 78.8 °F - 66.2 °F 65% 30.12 in 6.2 mi SE 10.4 mph - N/A   Partly Cloudy
6:30 PM 77.0 °F - 66.2 °F 69% 30.12 in 6.2 mi SE 9.2 mph - N/A   Partly Cloudy
7:00 PM 77.0 °F - 68.0 °F 74% 30.12 in 6.2 mi SE 8.1 mph - N/A   Partly Cloudy
7:30 PM 77.0 °F - 68.0 °F 74% 30.12 in 6.2 mi ESE 8.1 mph - N/A   Partly Cloudy
8:00 PM 80 °F - 69 °F 60% 30.13 in 9 mi SE 6.9 mph - -   Scattered Clouds
8:00 PM 77.0 °F - 68.0 °F 74% 30.12 in 6.2 mi SE 6.9 mph - N/A   Partly Cloudy
8:30 PM 75.2 °F - 66.2 °F 73% 30.12 in 6.2 mi SE 4.6 mph - N/A   Partly Cloudy
9:00 PM 75.2 °F - 68.0 °F 78% 30.12 in 6.2 mi Variable 2.3 mph - N/A   Partly Cloudy
9:30 PM 75.2 °F - 66.2 °F 73% 30.12 in 6.2 mi Variable 2.3 mph - N/A   Partly Cloudy
10:00 PM 75.2 °F - 66.2 °F 73% 30.15 in 6.2 mi Calm Calm - N/A   Partly Cloudy
10:30 PM 73.4 °F - 66.2 °F 78% 30.15 in 6.2 mi SSW 1.2 mph - N/A   Partly Cloudy
11:00 PM 73.4 °F - 66.2 °F 78% 30.15 in 6.2 mi SSW 1.2 mph - N/A   Partly Cloudy
11:30 PM 73.4 °F - 66.2 °F 78% 30.15 in 6.2 mi Calm Calm - N/A   Partly Cloudy